Vertical_Velocity
-2 -1 0 1 2 -0 -4 -3 0 -1 -1 4 4 0 -1 -1 0 -1 -1 -1 -3 -1 -1 -0 2 2 3 1 0 1 -0 0
4 2 2 3 -0 1 -0 -1 -4 -3 0 -1 2 4 4 -0 0 -0 -1 -1 -1 0 -2 -1 -0 0 1 1 -0 0 -0 -1
-0 2 2 1 0 3 0 -0 1 0 -2 -2 1 -1 5 4 -3 -1 -1 -0 -0 -0 -0 -2 -1 -0 1 -1 -0 0 1 -1
-3 -2 -0 0 1 -0 1 -3 -0 1 -0 -2 0 -2 1 -0 2 3 -6 -0 1 0 -0 -1 -1 0 1 -1 0 -1 0 -1
1 0 2 1 2 1 -1 -1 -2 -1 -3 -2 -3 -0 -2 -1 -0 1 2 -4 1 1 1 1 -2 -1 1 -1 0 1 -1 0
-3 -0 -2 -1 1 0 1 1 -0 -2 -1 -0 -1 -1 -1 -3 -1 -0 -2 2 -2 -4 -0 2 -1 0 -0 1 -1 -1 1 0
0 -2 -3 -1 2 0 -2 -0 1 -0 -2 -4 1 -2 1 -0 -1 -1 -0 -0 2 -0 -3 1 -2 -0 -0 1 2 -2 -1 -0
0 -1 -1 -2 -4 -3 -0 0 -0 -1 1 -1 -5 1 -0 -1 1 -1 -1 -2 -1 -1 1 -2 -2 -2 -2 3 2 2 0 -1
2 3 -0 -3 -4 -3 -1 -3 -2 -2 0 -0 2 -3 1 -2 2 3 3 -3 -4 -1 2 -1 -2 -4 -1 -1 1 1 0 0
-2 -3 -4 -4 -2 -0 -1 -4 1 2 -3 -3 -5 -1 -2 0 -2 3 1 -1 -3 -1 -0 2 -3 -5 -2 0 2 -2 -1 0
-7 -4 -2 -1 2 2 1 1 -2 -6 -4 4 -4 -9 -5 -2 5 6 -1 2 -3 -0 -6 -4 -6 -9 -3 -0 1 2 -2 -5
2 1 0 -0 0 -1 -3 -1 -1 -2 -2 -6 1 -3 -4 -7 -7 6 7 -3 1 0 -4 3 9 14 -4 -5 -3 0 5 -3
-0 -1 -8 -9 -4 -3 -1 2 0 1 -1 -1 -0 3 -3 -4 1 -4 -4 9 5 -6 -2 8 12 32 21 -9 -7 3 -4 3
-6 -6 -5 -3 -4 -1 -4 -4 -2 -6 5 3 -1 -2 -4 -12 -1 1 -3 -4 8 2 -8 1 5 80 67 9 -10 -7 10 -2
-1 -4 -4 -4 -6 -2 -2 -7 -6 2 6 11 3 2 -1 -15 -9 -1 -7 -9 2 7 -0 -12 5 9 1 21 72 -7 25 -5
-5 -4 -2 -2 -5 -4 -7 -7 -1 -5 -9 -7 6 -2 0 2 -3 -6 0 -6 -4 1 10 4 -7 -4 -7 -6 5 -18 10 2
-4 -3 -5 -8 -5 -7 -6 -6 -10 -7 -1 -2 -5 -1 -6 -4 -9 -8 -0 -4 -0 2 0 3 -1 3 -6 10 71 66 1 -8
-3 -4 -5 -7 -9 -8 -9 -12 -4 -6 -2 3 -3 -4 1 2 3 -4 -4 -2 3 3 1 4 7 11 -7 -11 6 4 13 18
-3 -1 -5 -4 -4 -4 -3 -5 -3 2 0 -0 3 2 -2 -2 -3 -2 -2 -4 2 4 -1 -0 10 5 -1 -2 4 -8 20 -14
-4 -2 -2 -2 -4 -5 -4 -2 2 -2 2 -7 -8 -0 -1 1 1 3 2 5 2 2 -2 -0 5 6 0 -5 4 -6 2 -1
Height
5836 5835 5834 5833 5832 5831 5829 5831 5830 5831 5832 5832 5832 5832 5833 5834 5834 5834 5834 5835 5835 5835 5834 5834 5834 5834 5833 5832 5832 5831 5832 5832
5830 5829 5828 5828 5825 5825 5824 5824 5825 5825 5826 5826 5826 5827 5826 5827 5828 5829 5829 5829 5831 5831 5831 5830 5830 5830 5829 5828 5828 5827 5827 5828
5823 5822 5822 5822 5821 5820 5820 5818 5818 5819 5819 5819 5819 5820 5820 5819 5822 5822 5824 5824 5825 5825 5825 5825 5825 5825 5825 5824 5824 5824 5824 5824
5818 5817 5817 5816 5815 5814 5814 5813 5812 5812 5812 5812 5812 5813 5813 5814 5816 5815 5816 5817 5818 5818 5819 5819 5819 5820 5820 5819 5819 5820 5820 5820
5810 5810 5810 5809 5809 5808 5807 5806 5805 5804 5804 5804 5804 5805 5806 5807 5808 5808 5809 5809 5810 5810 5812 5813 5814 5814 5815 5814 5815 5815 5816 5816
5804 5803 5803 5802 5802 5801 5800 5800 5799 5798 5797 5796 5796 5797 5797 5798 5799 5800 5801 5802 5802 5802 5803 5805 5808 5808 5809 5808 5809 5810 5811 5811
5797 5796 5795 5795 5794 5793 5793 5791 5790 5790 5789 5788 5787 5787 5788 5789 5789 5790 5792 5793 5794 5794 5794 5796 5800 5802 5803 5803 5804 5804 5806 5806
5789 5788 5788 5786 5785 5784 5783 5783 5782 5781 5780 5779 5779 5778 5778 5777 5778 5780 5781 5783 5784 5785 5786 5786 5790 5793 5796 5798 5797 5798 5799 5800
5781 5780 5779 5778 5777 5776 5774 5773 5772 5771 5769 5768 5768 5767 5767 5766 5767 5768 5770 5771 5773 5774 5775 5777 5780 5783 5787 5789 5789 5790 5791 5792
5772 5771 5769 5768 5767 5765 5763 5762 5760 5760 5759 5756 5755 5755 5755 5755 5754 5755 5757 5759 5761 5761 5764 5766 5769 5771 5775 5779 5780 5781 5783 5784
5761 5759 5758 5757 5755 5753 5751 5749 5747 5745 5744 5744 5743 5741 5740 5741 5743 5742 5741 5744 5747 5748 5751 5754 5757 5761 5763 5765 5769 5773 5775 5776
5751 5749 5746 5744 5741 5737 5735 5733 5731 5730 5728 5727 5727 5727 5725 5725 5726 5728 5729 5726 5732 5735 5738 5740 5739 5745 5750 5752 5756 5759 5762 5767
5739 5736 5734 5731 5727 5724 5721 5718 5715 5714 5711 5708 5707 5708 5708 5707 5708 5710 5712 5713 5713 5719 5722 5722 5720 5725 5729 5735 5740 5745 5751 5756
5726 5723 5720 5716 5712 5709 5705 5703 5700 5697 5695 5690 5686 5684 5684 5685 5685 5687 5691 5694 5698 5698 5704 5710 5708 5700 5699 5717 5722 5730 5735 5747
5711 5707 5703 5699 5696 5692 5689 5686 5683 5680 5675 5673 5668 5664 5661 5660 5662 5663 5666 5669 5676 5681 5682 5688 5693 5701 5703 5701 5696 5713 5728 5731
5697 5694 5689 5685 5681 5677 5672 5669 5666 5661 5658 5654 5649 5645 5644 5643 5644 5644 5645 5647 5650 5658 5665 5665 5669 5683 5690 5697 5694 5697 5705 5718
5685 5681 5676 5672 5667 5662 5658 5653 5649 5644 5640 5637 5635 5633 5629 5629 5629 5630 5630 5631 5633 5638 5643 5646 5652 5656 5675 5682 5677 5673 5689 5701
5672 5668 5664 5659 5654 5649 5643 5639 5635 5630 5627 5626 5624 5621 5616 5613 5612 5613 5614 5616 5618 5622 5626 5630 5635 5635 5656 5665 5666 5671 5682 5688
5661 5657 5653 5648 5642 5637 5632 5628 5623 5618 5616 5615 5612 5608 5603 5599 5597 5596 5596 5597 5598 5603 5609 5615 5620 5622 5635 5648 5654 5662 5668 5676
5651 5648 5643 5638 5632 5627 5622 5617 5611 5607 5605 5604 5600 5595 5589 5585 5581 5577 5574 5572 5575 5580 5589 5597 5604 5610 5617 5629 5639 5649 5657 5664